Location: Santa Maria di Sala
(45.5070°N, 12.0300°E)
Time: 15:34:46
(UTC+02:00)

Envisat - Visible Passes

Search period start: 16 April 2024 00:00
Search period end: 26 April 2024 00:00
Orbit: 762 x 764 km, 98.3° (Epoch: 15 April)

Date Brightness Start Highest point End Pass type
(mag) Time Alt. Az. Time Alt. Az. Time Alt. Az.
16 Apr 5.1 03:31:22 10° NE 03:35:08 21° E 03:38:52 10° SE visible
16 Apr 3.2 05:09:28 10° N 05:14:25 53° WNW 05:19:03 12° SW visible
17 Apr 3.2 04:32:04 10° NNE 04:37:09 73° ESE 04:41:23 15° S visible
18 Apr 4.4 03:55:05 10° NNE 03:59:41 33° E 04:03:43 13° SSE visible
18 Apr 3.8 05:34:06 10° N 05:38:37 33° WNW 05:43:06 10° SW visible
19 Apr 5.5 03:18:57 10° NE 03:22:00 16° E 03:25:02 10° SE visible
19 Apr 3.0 04:56:25 10° N 05:01:29 69° WNW 05:06:14 12° SSW visible
20 Apr 3.6 04:19:08 10° NNE 04:24:08 56° E 04:28:34 13° S visible
21 Apr 4.8 03:42:21 10° NE 03:46:36 26° E 03:50:48 10° SSE visible
21 Apr 3.5 05:20:56 10° N 05:25:43 42° WNW 05:30:28 10° SW visible
22 Apr 5.6 03:06:57 10° ENE 03:08:50 12° E 03:10:42 10° ESE visible
22 Apr 3.0 04:43:23 10° NNE 04:48:30 89° WNW 04:53:23 11° SSW visible
23 Apr 4.0 04:06:15 10° NNE 04:11:05 43° E 04:15:43 11° SSE visible
24 Apr 5.2 03:29:45 10° NE 03:33:28 20° E 03:37:10 10° SE visible
24 Apr 3.2 05:07:49 10° N 05:12:46 55° WNW 05:17:42 10° SSW visible
25 Apr 3.2 04:30:24 10° NNE 04:35:30 71° ESE 04:40:31 10° S visible
